Location: Newark
(52.8300°N, 8.0000°E)
Time: 16:28:57
(UTC+00:00)

ISS - Visible Passes

Search period start: 27 January 2020 00:00
Search period end: 06 February 2020 00:00
Orbit: 416 x 423 km, 51.6° (Epoch: 28 January)

Date Brightness Start Highest point End Pass type
(mag) Time Alt. Az. Time Alt. Az. Time Alt. Az.
27 Jan -2.5 16:39:50 10° SW 16:42:52 31° SSE 16:45:55 10° E visible
27 Jan -3.7 18:16:02 10° WSW 18:19:20 69° S 18:19:20 69° S visible
28 Jan -3.5 17:28:35 10° WSW 17:31:57 61° SSE 17:33:46 24° E visible
28 Jan -1.3 19:05:17 10° W 19:06:44 23° W 19:06:44 23° W visible
29 Jan -3.2 16:41:10 10° WSW 16:44:29 51° SSE 16:47:47 10° E visible
29 Jan -3.8 18:17:46 10° W 18:21:09 73° S 18:21:10 73° S visible
30 Jan -3.7 17:30:15 10° W 17:33:39 73° S 17:35:36 23° E visible
30 Jan -1.4 19:07:02 10° W 19:08:34 24° W 19:08:34 24° W visible
31 Jan -3.5 16:42:45 10° WSW 16:46:07 69° S 16:49:30 10° E visible
31 Jan -3.5 18:19:29 10° W 18:22:50 60° SSW 18:23:01 59° S visible
01 Feb -3.6 17:31:56 10° W 17:35:19 68° S 17:37:31 20° ESE visible
01 Feb -1.3 19:08:49 10° W 19:10:29 22° WSW 19:10:29 22° WSW visible
02 Feb -2.7 18:21:12 10° W 18:24:23 39° SSW 18:25:01 35° S visible
03 Feb -3.0 17:33:36 10° W 17:36:54 50° SSW 17:39:38 14° SE visible
03 Feb -1.0 19:10:57 10° WSW 19:12:36 16° SW 19:12:36 16° SW visible
04 Feb -1.6 18:23:03 10° W 18:25:46 22° SSW 18:27:19 17° S visible
05 Feb -2.0 17:35:18 10° W 17:38:20 30° SSW 17:41:20 10° SE visible
